,,PressureMeas_1m,,PRMeasQMR101_1,,RHStat155_1m_1,,SRMeasQMS101R_1m,,TAStat155_1m_1,,GenWind_1,,GenWind_1,
2017-03-24, 07:00:06,VALID,918.653,VALID,0.0,VALID,96.658,VALID,30.244,VALID,19.968,VALID,2.0,VALID,0.525,
2017-03-24, 07:01:06,VALID,918.68,VALID,0.0,VALID,96.657,VALID,31.101,VALID,19.979,VALID,352.0,VALID,0.336,
2017-03-24, 07:02:06,VALID,918.7,VALID,0.0,VALID,96.697,VALID,31.842,VALID,19.986,VALID,8.0,VALID,0.643,
2017-03-24, 07:03:06,VALID,918.733,VALID,0.0,VALID,96.666,VALID,33.058,VALID,19.997,VALID,339.0,VALID,0.191,
2017-03-24, 07:04:06,VALID,918.753,VALID,0.0,VALID,96.494,VALID,34.764,VALID,19.989,VALID,353.0,VALID,0.217,
2017-03-24, 07:05:06,VALID,918.797,VALID,0.0,VALID,96.56,VALID,35.844,VALID,20.006,VALID,357.0,VALID,0.106,
2017-03-24, 07:06:06,VALID,918.814,VALID,0.0,VALID,96.535,VALID,38.08,VALID,20.028,VALID,11.0,VALID,0.15,
2017-03-24, 07:07:06,VALID,918.827,VALID,0.0,VALID,96.499,VALID,40.726,VALID,20.043,VALID,11.0,VALID,0.053,
2017-03-24, 07:08:06,VALID,918.814,VALID,0.0,VALID,96.426,VALID,43.202,VALID,20.058,VALID,12.0,VALID,0.102,
2017-03-24, 07:09:06,VALID,918.802,VALID,0.0,VALID,96.383,VALID,45.305,VALID,20.083,VALID,17.0,VALID,0.541,
2017-03-24, 07:10:06,VALID,918.826,VALID,0.0,VALID,96.302,VALID,47.181,VALID,20.097,VALID,4.0,VALID,0.257,
2017-03-24, 07:11:06,VALID,918.866,VALID,0.0,VALID,96.183,VALID,48.622,VALID,20.094,VALID,359.0,VALID,0.053,
2017-03-24, 07:12:06,VALID,918.905,VALID,0.0,VALID,96.219,VALID,49.656,VALID,20.103,VALID,273.0,VALID,0.153,
2017-03-24, 07:13:06,VALID,918.92,VALID,0.0,VALID,96.327,VALID,50.433,VALID,20.125,VALID,244.0,VALID,0.419,
2017-03-24, 07:14:06,VALID,918.938,VALID,0.0,VALID,96.309,VALID,49.378,VALID,20.129,VALID,245.0,VALID,0.749,
2017-03-24, 07:15:06,VALID,918.943,VALID,0.0,VALID,96.395,VALID,50.594,VALID,20.105,VALID,222.0,VALID,0.614,
2017-03-24, 07:16:06,VALID,918.968,VALID,0.0,VALID,96.529,VALID,50.049,VALID,20.108,VALID,212.0,VALID,0.552,
2017-03-24, 07:17:06,VALID,918.979,VALID,0.0,VALID,96.591,VALID,48.466,VALID,20.125,VALID,235.0,VALID,0.51,
2017-03-24, 07:18:06,VALID,919.012,VALID,0.0,VALID,96.591,VALID,47.712,VALID,20.152,VALID,249.0,VALID,0.659,
2017-03-24, 07:19:06,VALID,919.016,VALID,0.0,VALID,96.62,VALID,46.926,VALID,20.192,VALID,236.0,VALID,0.75,
2017-03-24, 07:20:06,VALID,919.05,VALID,0.0,VALID,96.568,VALID,44.63,VALID,20.247,VALID,242.0,VALID,0.975,
2017-03-24, 07:21:06,VALID,919.077,VALID,0.0,VALID,96.425,VALID,40.342,VALID,20.287,VALID,252.0,VALID,0.847,
2017-03-24, 07:22:06,VALID,919.092,VALID,0.0,VALID,96.367,VALID,40.15,VALID,20.322,VALID,250.0,VALID,1.144,
2017-03-24, 07:23:06,VALID,919.106,VALID,0.0,VALID,96.358,VALID,41.666,VALID,20.354,VALID,250.0,VALID,1.509,
2017-03-24, 07:24:06,VALID,919.126,VALID,0.0,VALID,96.37,VALID,39.037,VALID,20.359,VALID,265.0,VALID,1.387,
2017-03-24, 07:25:06,VALID,919.148,VALID,0.0,VALID,96.466,VALID,37.349,VALID,20.349,VALID,256.0,VALID,1.484,
2017-03-24, 07:26:06,VALID,919.184,VALID,0.0,VALID,96.621,VALID,37.849,VALID,20.332,VALID,241.0,VALID,1.652,
2017-03-24, 07:27:06,VALID,919.194,VALID,0.0,VALID,96.685,VALID,33.454,VALID,20.303,VALID,255.0,VALID,1.796,
2017-03-24, 07:28:06,VALID,919.206,VALID,0.0,VALID,96.837,VALID,29.954,VALID,20.288,VALID,260.0,VALID,1.148,
2017-03-24, 07:29:06,VALID,919.202,VALID,0.0,VALID,96.938,VALID,26.466,VALID,20.278,VALID,257.0,VALID,1.236,
2017-03-24, 07:30:06,VALID,919.197,VALID,0.0,VALID,97.0,VALID,21.81,VALID,20.26,VALID,250.0,VALID,0.788,
2017-03-24, 07:31:06,VALID,919.197,VALID,0.0,VALID,97.051,VALID,17.605,VALID,20.246,VALID,264.0,VALID,1.23,
2017-03-24, 07:32:06,VALID,919.188,VALID,0.0,VALID,96.993,VALID,12.715,VALID,20.189,VALID,270.0,VALID,2.568,
2017-03-24, 07:33:06,VALID,919.191,VALID,0.0,VALID,96.929,VALID,12.016,VALID,20.077,VALID,254.0,VALID,3.164,
2017-03-24, 07:34:06,VALID,919.203,VALID,0.0,VALID,96.9,VALID,14.031,VALID,19.938,VALID,235.0,VALID,2.233,
2017-03-24, 07:35:06,VALID,919.189,VALID,0.0,VALID,97.205,VALID,15.76,VALID,19.888,VALID,250.0,VALID,1.519,
2017-03-24, 07:36:06,VALID,919.187,VALID,0.0,VALID,97.387,VALID,16.979,VALID,19.878,VALID,295.0,VALID,1.073,
2017-03-24, 07:37:06,VALID,919.199,VALID,0.0,VALID,97.551,VALID,20.589,VALID,19.895,VALID,253.0,VALID,0.997,
2017-03-24, 07:38:06,VALID,919.196,VALID,0.0,VALID,97.382,VALID,24.121,VALID,19.837,VALID,265.0,VALID,1.324,
2017-03-24, 07:39:06,VALID,919.181,VALID,0.0,VALID,97.43,VALID,25.956,VALID,19.821,VALID,313.0,VALID,0.454,
2017-03-24, 07:40:06,VALID,919.139,VALID,0.0,VALID,97.445,VALID,28.144,VALID,19.801,VALID,348.0,VALID,0.758,
2017-03-24, 07:41:06,VALID,919.121,VALID,0.0,VALID,97.473,VALID,28.284,VALID,19.813,VALID,8.0,VALID,1.55,
2017-03-24, 07:42:06,VALID,919.127,VALID,0.0,VALID,97.559,VALID,29.362,VALID,19.834,VALID,10.0,VALID,1.337,
2017-03-24, 07:43:06,VALID,919.121,VALID,0.0,VALID,97.575,VALID,31.711,VALID,19.852,VALID,12.0,VALID,0.966,
2017-03-24, 07:44:06,VALID,919.098,VALID,0.0,VALID,97.166,VALID,34.776,VALID,19.769,VALID,29.0,VALID,1.361,
2017-03-24, 07:45:06,VALID,919.087,VALID,0.0,VALID,96.949,VALID,40.208,VALID,19.75,VALID,16.0,VALID,1.349,
2017-03-24, 07:46:06,VALID,919.115,VALID,0.0,VALID,96.798,VALID,46.435,VALID,19.78,VALID,11.0,VALID,1.428,
2017-03-24, 07:47:06,VALID,919.15,VALID,0.0,VALID,96.025,VALID,54.255,VALID,19.763,VALID,7.0,VALID,0.707,
2017-03-24, 07:48:06,VALID,919.183,VALID,0.0,VALID,95.862,VALID,63.076,VALID,19.802,VALID,16.0,VALID,1.009,
2017-03-24, 07:49:06,VALID,919.197,VALID,0.0,VALID,96.026,VALID,71.656,VALID,19.851,VALID,13.0,VALID,0.956,
2017-03-24, 07:50:06,VALID,919.221,VALID,0.0,VALID,95.969,VALID,78.766,VALID,19.885,VALID,16.0,VALID,1.17,
2017-03-24, 07:51:06,VALID,919.251,VALID,0.0,VALID,95.427,VALID,84.383,VALID,19.89,VALID,9.0,VALID,1.104,
2017-03-24, 07:52:06,VALID,919.272,VALID,0.0,VALID,95.208,VALID,89.344,VALID,19.906,VALID,13.0,VALID,0.809,
2017-03-24, 07:53:06,VALID,919.271,VALID,0.0,VALID,95.716,VALID,94.125,VALID,19.972,VALID,19.0,VALID,0.623,
2017-03-24, 07:54:06,VALID,919.268,VALID,0.0,VALID,95.39,VALID,98.325,VALID,19.983,VALID,10.0,VALID,0.443,
2017-03-24, 07:55:06,VALID,919.254,VALID,0.0,VALID,94.914,VALID,102.523,VALID,19.977,VALID,6.0,VALID,0.446,
2017-03-24, 07:56:06,VALID,919.26,VALID,0.0,VALID,94.547,VALID,106.392,VALID,19.965,VALID,46.0,VALID,0.261,
2017-03-24, 07:57:06,VALID,919.262,VALID,0.0,VALID,94.767,VALID,109.44,VALID,19.978,VALID,37.0,VALID,0.156,
2017-03-24, 07:58:06,VALID,919.28,VALID,0.0,VALID,95.065,VALID,111.665,VALID,20.019,VALID,48.0,VALID,0.076,
2017-03-24, 07:59:06,VALID,919.286,VALID,0.0,VALID,95.415,VALID,113.442,VALID,20.089,VALID,55.0,VALID,0.032,
2017-03-24, 08:00:06,VALID,919.307,VALID,0.0,VALID,95.255,VALID,114.94,VALID,20.136,VALID,43.0,VALID,0.373,
2017-03-24, 08:01:06,VALID,919.305,VALID,0.0,VALID,94.781,VALID,116.314,VALID,20.14,VALID,40.0,VALID,0.348,
2017-03-24, 08:02:06,VALID,919.323,VALID,0.0,VALID,94.311,VALID,117.964,VALID,20.109,VALID,30.0,VALID,0.044,
2017-03-24, 08:03:06,VALID,919.305,VALID,0.0,VALID,94.571,VALID,119.541,VALID,20.122,VALID,9.0,VALID,0.18,
2017-03-24, 08:04:06,VALID,919.304,VALID,0.0,VALID,94.855,VALID,120.158,VALID,20.136,VALID,11.0,VALID,0.828,
2017-03-24, 08:05:06,VALID,919.306,VALID,0.0,VALID,95.01,VALID,122.204,VALID,20.131,VALID,35.0,VALID,0.986,
2017-03-24, 08:06:06,VALID,919.294,VALID,0.0,VALID,95.164,VALID,125.539,VALID,20.131,VALID,16.0,VALID,1.092,
2017-03-24, 08:07:06,VALID,919.323,VALID,0.0,VALID,94.98,VALID,127.459,VALID,20.094,VALID,19.0,VALID,0.861,
2017-03-24, 08:08:06,VALID,919.356,VALID,0.0,VALID,95.199,VALID,128.927,VALID,20.078,VALID,28.0,VALID,0.659,
2017-03-24, 08:09:06,VALID,919.382,VALID,0.0,VALID,95.522,VALID,130.001,VALID,20.108,VALID,12.0,VALID,0.378,
2017-03-24, 08:10:06,VALID,919.401,VALID,0.0,VALID,95.324,VALID,130.622,VALID,20.134,VALID,18.0,VALID,0.643,
2017-03-24, 08:11:06,VALID,919.409,VALID,0.0,VALID,94.592,VALID,131.142,VALID,20.132,VALID,358.0,VALID,0.255,
2017-03-24, 08:12:06,VALID,919.436,VALID,0.0,VALID,95.122,VALID,132.045,VALID,20.221,VALID,6.0,VALID,0.363,
2017-03-24, 08:13:06,VALID,919.431,VALID,0.0,VALID,95.029,VALID,133.022,VALID,20.28,VALID,14.0,VALID,0.668,
2017-03-24, 08:14:06,VALID,919.457,VALID,0.0,VALID,94.19,VALID,133.631,VALID,20.239,VALID,24.0,VALID,0.644,
2017-03-24, 08:15:06,VALID,919.477,VALID,0.0,VALID,94.999,VALID,134.114,VALID,20.271,VALID,15.0,VALID,0.369,
2017-03-24, 08:16:06,VALID,919.498,VALID,0.0,VALID,94.329,VALID,134.822,VALID,20.292,VALID,49.0,VALID,0.121,
2017-03-24, 08:17:06,VALID,919.505,VALID,0.0,VALID,94.155,VALID,135.797,VALID,20.333,VALID,32.0,VALID,0.073,
2017-03-24, 08:18:06,VALID,919.533,VALID,0.0,VALID,93.85,VALID,136.93,VALID,20.407,VALID,158.0,VALID,0.417,
2017-03-24, 08:19:06,VALID,919.541,VALID,0.0,VALID,93.06,VALID,138.857,VALID,20.445,VALID,182.0,VALID,0.438,
2017-03-24, 08:20:06,VALID,919.555,VALID,0.0,VALID,93.133,VALID,141.756,VALID,20.473,VALID,188.0,VALID,0.384,
2017-03-24, 08:21:06,VALID,919.565,VALID,0.0,VALID,92.892,VALID,145.134,VALID,20.522,VALID,185.0,VALID,0.5,
2017-03-24, 08:22:06,VALID,919.577,VALID,0.0,VALID,93.189,VALID,148.699,VALID,20.569,VALID,184.0,VALID,0.81,
2017-03-24, 08:23:06,VALID,919.571,VALID,0.0,VALID,92.583,VALID,151.902,VALID,20.578,VALID,182.0,VALID,0.591,
2017-03-24, 08:24:06,VALID,919.589,VALID,0.0,VALID,92.558,VALID,154.659,VALID,20.597,VALID,128.0,VALID,0.348,
2017-03-24, 08:25:06,VALID,919.598,VALID,0.0,VALID,93.142,VALID,157.042,VALID,20.621,VALID,106.0,VALID,0.298,
2017-03-24, 08:26:06,VALID,919.613,VALID,0.0,VALID,93.168,VALID,158.509,VALID,20.649,VALID,62.0,VALID,0.424,
2017-03-24, 08:27:06,VALID,919.618,VALID,0.0,VALID,92.876,VALID,159.391,VALID,20.634,VALID,39.0,VALID,0.32,
2017-03-24, 08:28:06,VALID,919.618,VALID,0.0,VALID,93.231,VALID,160.787,VALID,20.689,VALID,30.0,VALID,0.411,
2017-03-24, 08:29:06,VALID,919.616,VALID,0.0,VALID,91.938,VALID,163.695,VALID,20.744,VALID,19.0,VALID,0.248,
2017-03-24, 08:30:06,VALID,919.611,VALID,0.0,VALID,90.647,VALID,168.246,VALID,20.801,VALID,329.0,VALID,0.362,
2017-03-24, 08:31:06,VALID,919.588,VALID,0.0,VALID,89.796,VALID,173.717,VALID,20.844,VALID,350.0,VALID,0.485,
2017-03-24, 08:32:06,VALID,919.564,VALID,0.0,VALID,90.086,VALID,179.677,VALID,20.878,VALID,4.0,VALID,0.542,
2017-03-24, 08:33:06,VALID,919.556,VALID,0.0,VALID,90.117,VALID,185.27,VALID,20.917,VALID,343.0,VALID,0.432,
2017-03-24, 08:34:06,VALID,919.563,VALID,0.0,VALID,89.786,VALID,190.165,VALID,20.929,VALID,338.0,VALID,0.432,
2017-03-24, 08:35:06,VALID,919.565,VALID,0.0,VALID,90.086,VALID,194.824,VALID,20.973,VALID,312.0,VALID,0.085,
2017-03-24, 08:36:06,VALID,919.57,VALID,0.0,VALID,91.103,VALID,200.215,VALID,21.004,VALID,315.0,VALID,0.126,
2017-03-24, 08:37:06,VALID,919.561,VALID,0.0,VALID,91.157,VALID,207.201,VALID,21.061,VALID,306.0,VALID,0.102,
2017-03-24, 08:38:06,VALID,919.566,VALID,0.0,VALID,91.223,VALID,215.779,VALID,21.078,VALID,273.0,VALID,0.095,
2017-03-24, 08:39:06,VALID,919.571,VALID,0.0,VALID,91.417,VALID,225.356,VALID,21.122,VALID,302.0,VALID,0.07,
2017-03-24, 08:40:06,VALID,919.579,VALID,0.0,VALID,90.716,VALID,234.907,VALID,21.182,VALID,304.0,VALID,0.089,
2017-03-24, 08:41:06,VALID,919.591,VALID,0.0,VALID,89.846,VALID,244.498,VALID,21.236,VALID,325.0,VALID,0.239,
2017-03-24, 08:42:06,VALID,919.584,VALID,0.0,VALID,89.871,VALID,253.473,VALID,21.314,VALID,19.0,VALID,0.591,
2017-03-24, 08:43:06,VALID,919.563,VALID,0.0,VALID,90.286,VALID,262.048,VALID,21.396,VALID,336.0,VALID,0.329,
2017-03-24, 08:44:06,VALID,919.547,VALID,0.0,VALID,91.095,VALID,268.763,VALID,21.44,VALID,11.0,VALID,0.688,
2017-03-24, 08:45:06,VALID,919.554,VALID,0.0,VALID,92.024,VALID,274.863,VALID,21.541,VALID,17.0,VALID,0.452,
2017-03-24, 08:46:06,VALID,919.559,VALID,0.0,VALID,90.911,VALID,279.876,VALID,21.621,VALID,358.0,VALID,0.436,
2017-03-24, 08:47:06,VALID,919.573,VALID,0.0,VALID,89.177,VALID,283.237,VALID,21.696,VALID,337.0,VALID,0.602,
2017-03-24, 08:48:06,VALID,919.576,VALID,0.0,VALID,89.092,VALID,285.311,VALID,21.632,VALID,296.0,VALID,0.363,
2017-03-24, 08:49:06,VALID,919.566,VALID,0.0,VALID,88.717,VALID,286.564,VALID,21.571,VALID,332.0,VALID,0.571,
2017-03-24, 08:50:06,VALID,919.578,VALID,0.0,VALID,89.237,VALID,287.571,VALID,21.578,VALID,329.0,VALID,0.521,
2017-03-24, 08:51:06,VALID,919.577,VALID,0.0,VALID,86.246,VALID,289.293,VALID,21.596,VALID,319.0,VALID,0.111,
2017-03-24, 08:52:06,VALID,919.591,VALID,0.0,VALID,87.561,VALID,292.375,VALID,21.623,VALID,303.0,VALID,0.66,
2017-03-24, 08:53:06,VALID,919.608,VALID,0.0,VALID,89.531,VALID,296.832,VALID,21.469,VALID,309.0,VALID,0.621,
2017-03-24, 08:54:06,VALID,919.615,VALID,0.0,VALID,90.075,VALID,302.889,VALID,21.408,VALID,329.0,VALID,0.647,
2017-03-24, 08:55:06,VALID,919.604,VALID,0.0,VALID,89.295,VALID,310.744,VALID,21.418,VALID,290.0,VALID,0.473,
2017-03-24, 08:56:06,VALID,919.596,VALID,0.0,VALID,90.687,VALID,321.761,VALID,21.369,VALID,307.0,VALID,0.423,
2017-03-24, 08:57:06,VALID,919.591,VALID,0.0,VALID,90.265,VALID,334.197,VALID,21.38,VALID,317.0,VALID,0.446,
2017-03-24, 08:58:06,VALID,919.594,VALID,0.0,VALID,90.751,VALID,349.463,VALID,21.447,VALID,322.0,VALID,0.045,
2017-03-24, 08:59:06,VALID,919.577,VALID,0.0,VALID,90.438,VALID,354.549,VALID,21.548,VALID,308.0,VALID,0.2,
2017-03-24, 09:00:06,VALID,919.586,VALID,0.0,VALID,90.238,VALID,356.97,VALID,21.632,VALID,268.0,VALID,0.128,
